This demonstration page uses our WeatherBlox Daily Observations layout. Learn more.

Left ArrowRight Arrow

36.19886, -115.1175

Hourly Observations for October 18, 2019

Temp ( °F °C ) Dew Point ( °F °C ) Humidity (%) Winds ( mph kmh ) Pressure ( in mb ) Visibility ( mi km ) Precip ( " mm )
12:53 am 00:53 Clear 71 21.7 30 -1.1 22 22 NW 18 30 29.68 1005 10 16 0.00 0.00
1:53 am 01:53 Clear 71 21.7 29 -1.7 21 21 NW 17 28 29.70 1006 10 16 0.00 0.00
2:53 am 02:53 Clear 70 21.1 27 -2.8 20 20 NW 17 28 29.73 1007 10 16 0.00 0.00
3:53 am 03:53 Clear 69 20.6 20 -6.7 15 15 NW 24 39 29.75 1008 10 16 0.00 0.00
4:53 am 04:53 Clear 66 18.9 16 -8.9 14 14 NW 20 31 29.80 1009 10 16 0.00 0.00
5:53 am 05:53 Clear 65 18.3 16 -8.9 15 15 NW 18 30 29.85 1011 10 16 0.00 0.00
6:53 am 06:53 Sunny 63 17.2 16 -8.9 16 16 NNW 18 30 29.89 1012 10 16 0.00 0.00
7:53 am 07:53 Sunny 64 17.8 15 -9.4 15 15 NNW 14 22 29.93 1013 10 16 0.00 0.00
8:53 am 08:53 Sunny 66 18.9 15 -9.4 14 14 NNW 14 22 29.96 1015 10 16 0.00 0.00
9:53 am 09:53 Sunny 68 20 14 -10 12 12 NNW 12 19 29.97 1015 10 16 0.00 0.00
10:53 am 10:53 Sunny 70 21.1 12 -11.1 10 10 NNW 17 28 29.96 1015 10 16 0.00 0.00
11:53 am 11:53 Sunny 71 21.7 12 -11.1 10 10 NW 14 22 29.96 1014 10 16 0.00 0.00
12:53 pm 12:53 Sunny 73 22.8 10 -12.2 9 9 VRB 7 11 29.93 1014 10 16 0.00 0.00
1:53 pm 13:53 Sunny 74 23.3 10 -12.2 8 8 VRB 5 7 29.91 1013 10 16 0.00 0.00
2:53 pm 14:53 Sunny 74 23.3 9 -12.8 8 8 VRB 3 6 29.90 1013 10 16 0.00 0.00
3:53 pm 15:53 Sunny 76 24.4 8 -13.3 7 7 VRB 3 6 29.90 1013 10 16 0.00 0.00
4:53 pm 16:53 Sunny 74 23.3 9 -12.8 8 8 Calm 29.89 1012 10 16 0.00 0.00
5:53 pm 17:53 Sunny 74 23.3 8 -13.3 8 8 Calm 29.89 1012 10 16 0.00 0.00
6:53 pm 18:53 Clear 72 22.2 10 -12.2 9 9 Calm 29.89 1012 10 16 0.00 0.00
7:53 pm 19:53 Clear 68 20 16 -8.9 13 13 W 5 7 29.91 1013 10 16 0.00 0.00
8:53 pm 20:53 Clear 63 17.2 19 -7.2 18 18 NNW 6 9 29.93 1013 10 16 0.00 0.00
9:53 pm 21:53 Clear 60 15.6 15 -9.4 17 17 NW 5 7 29.94 1014 10 16 0.00 0.00
10:53 pm 22:53 Clear 60 15.6 16 -8.9 18 18 WNW 7 11 29.93 1014 10 16 0.00 0.00
11:53 pm 23:53 Clear 60 15.6 12 -11.1 15 15 NNW 8 13 29.93 1014 10 16 0.00 0.00

Powered by AerisWeather